Tracking 30995 objects as of 7-Jul-2025
HD Live streaming from Space Station
objects crossing your sky now

STARLINK-5940

Track STARLINK-5940 now!
10-day predictions
STARLINK-5940 is classified as:


NORAD ID: 56012
Int'l Code: 2023-042AC
Perigee: 565.4 km
Apogee: 567.1 km
Inclination: 43.0 °
Period: 95.8 minutes
Semi major axis: 6937 km
RCS: Unknown
Launch date: March 24, 2022
Source: United States (US)
Launch site: AIR FORCE EASTERN TEST RANGE (AFETR)
Your satellite tracking list
STARLINK-3387
Track 1 satellite(s)




NASA's NSSDC Master Catalog

Two Line Element Set (TLE):
1 56012U 23042AC  25187.31469011  .00000121  00000-0  24024-4 0  9993
2 56012  43.0045 302.3132 0001210 269.9234  90.1470 15.02535669125994
Source of the keplerian elements: AFSPC